Weather History for KNEW - March, 2014

Change the Weather History Date:

Friday, March 21, 2014

  Actual Average Record
Temperature  
Mean Temperature 64 °F 64 °F  
Max Temperature 75 °F 73 °F 87 °F (1982)
Min Temperature 53 °F 54 °F 32 °F (1965)
Degree Days  
Heating Degree Days 1 4  
Month to date heating degree days 150 107  
Since 1 July heating degree days 1503 1216  
Cooling Degree Days 0 2  
Month to date cooling degree days 14 37  
Year to date cooling degree days 38 74  
Growing Degree Days 14 (Base 50)    
Moisture  
Dew Point 55 °F    
Average Humidity 71    
Maximum Humidity 100    
Minimum Humidity 41    
Precipitation  
Precipitation 0.00 in 0.13 in 3.11 in (1989)
Month to date precipitation 0.99 3.05  
Year to date precipitation 10.02 13.50  
Snow  
Snow 0.00 in - - ()
Month to date snowfall 0.0  
Since 1 July snowfall T  
Snow Depth 0.00 in    
Sea Level Pressure  
Sea Level Pressure 30.06 in    
Wind  
Wind Speed 6 mph (SE)    
Max Wind Speed 16 mph    
Max Gust Speed 19 mph    
Visibility 5 miles    
Events Fog    
T = Trace of Precipitation, MM = Missing Value Source: NWS Daily Summary

Daily Weather History Graph

Daily Weather History Graph

Search for Another Location

Airport or City:

Trip Planner

Search our weather history database for the weather conditions in past years. The results will help you decide how hot, cold, wet, or windy it might be!

Date:

Astronomy

Mar. 21, 2014 Rise Set
Actual Time 7:02 AM CDT 7:12 PM CDT
Civil Twilight 6:38 AM CDT 7:36 PM CDT
Nautical Twilight 6:10 AM CDT 8:03 PM CDT
Astronomical Twilight 5:42 AM CDT 8:32 PM CDT
Moon No Moon Rise 10:13 AM CDT (3/21)
Length of Visible Light 12h 57m
Length of Day
12h 09m
Waning Gibbous, 75% of the Moon is Illuminated
Mar 21
Waning Gibbous
Mar 23
Last Quarter
Mar 30
New
Apr 7
First Quarter
Apr 15
Full

Hourly Weather History & Observations

Time (CDT) Temp. Dew Point Humidity Pressure Visibility Wind Dir Wind Speed Gust Speed Precip Events Conditions
12:53 AM 61.0 °F 57.9 °F 90% 30.07 in 7.0 mi SW 5.8 mph - N/A   Clear
1:53 AM 60.1 °F 57.9 °F 93% 30.07 in 7.0 mi SSW 4.6 mph - N/A   Clear
2:53 AM 60.1 °F 57.9 °F 93% 30.06 in 5.0 mi WSW 3.5 mph - N/A   Clear
3:53 AM 60.1 °F 57.9 °F 93% 30.05 in 4.0 mi Calm Calm - N/A   Clear
4:34 AM 57.0 °F 55.9 °F 96% 30.08 in 2.5 mi Calm Calm - N/A   Clear
4:53 AM 57.0 °F 55.9 °F 96% 30.06 in 2.5 mi Calm Calm - N/A   Clear
5:03 AM 57.0 °F 54.0 °F 89% 30.08 in 3.0 mi Calm Calm - N/A   Clear
5:14 AM 57.0 °F 55.9 °F 96% 30.08 in 2.5 mi Calm Calm - N/A   Clear
5:53 AM 55.9 °F 55.0 °F 97% 30.06 in 2.0 mi Calm Calm - N/A   Clear
6:18 AM 57.0 °F 57.0 °F 100% 30.07 in 1.8 mi SE 4.6 mph - N/A   Clear
6:53 AM 55.0 °F 55.0 °F 100% 30.07 in 1.8 mi SSE 4.6 mph - N/A   Clear
7:13 AM 55.9 °F 55.0 °F 97% 30.09 in 0.8 mi SE 4.6 mph - N/A   Clear
7:23 AM 54.0 °F 54.0 °F 100% 30.09 in 0.2 mi SSE 5.8 mph - N/A Fog Fog
7:30 AM 55.0 °F 55.0 °F 100% 30.10 in 0.2 mi SSE 4.6 mph - N/A Fog Fog
7:53 AM 55.9 °F 55.9 °F 100% 30.08 in 0.2 mi SSE 3.5 mph - N/A Fog Fog
8:05 AM 57.0 °F 57.0 °F 100% 30.10 in 0.2 mi SSE 3.5 mph - N/A Fog Fog
8:12 AM 57.0 °F 57.0 °F 100% 30.10 in 0.8 mi Calm Calm - N/A   Mist
8:41 AM 57.9 °F 57.9 °F 100% 30.11 in 0.1 mi East 5.8 mph - N/A Fog Fog
8:53 AM 59.0 °F 57.9 °F 96% 30.09 in 0.8 mi East 4.6 mph - N/A Fog Fog
9:06 AM 60.1 °F 59.0 °F 96% 30.11 in 2.0 mi East 4.6 mph - N/A   Mostly Cloudy
9:20 AM 60.1 °F 59.0 °F 96% 30.12 in 2.0 mi East 3.5 mph - N/A   Mostly Cloudy
9:30 AM 61.0 °F 60.1 °F 97% 30.12 in 2.0 mi ENE 3.5 mph - N/A   Scattered Clouds
9:53 AM 63.0 °F 60.1 °F 90% 30.10 in 4.0 mi East 5.8 mph - N/A   Clear
10:53 AM 69.1 °F 57.9 °F 68% 30.09 in 10.0 mi East 6.9 mph - N/A   Clear
11:53 AM 70.0 °F 54.0 °F 57% 30.09 in 10.0 mi ESE 9.2 mph - N/A   Clear
12:53 PM 72.0 °F 50.0 °F 46% 30.08 in 10.0 mi East 9.2 mph - N/A   Clear
1:53 PM 73.9 °F 52.0 °F 46% 30.04 in 10.0 mi ESE 10.4 mph - N/A   Clear
2:53 PM 73.9 °F 48.9 °F 41% 30.02 in 10.0 mi South 10.4 mph - N/A   Partly Cloudy
3:53 PM 73.9 °F 50.0 °F 43% 30.01 in 10.0 mi SSE 10.4 mph 18.4 mph N/A   Clear
4:53 PM 73.0 °F 51.1 °F 46% 30.00 in 10.0 mi SSE 6.9 mph - N/A   Clear
5:53 PM 73.0 °F 51.1 °F 46% 30.00 in 10.0 mi SSE 9.2 mph - N/A   Clear
6:53 PM 70.0 °F 50.0 °F 49% 29.99 in 10.0 mi SSE 10.4 mph - N/A   Clear
7:53 PM 66.9 °F 51.1 °F 57% 29.99 in 10.0 mi South 11.5 mph - N/A   Clear
8:53 PM 64.9 °F 52.0 °F 63% 30.01 in 10.0 mi South 9.2 mph - N/A   Clear
9:53 PM 63.0 °F 55.0 °F 75% 30.02 in 10.0 mi South 9.2 mph - N/A   Clear
10:53 PM 62.1 °F 55.9 °F 80% 30.02 in 9.0 mi South 6.9 mph - N/A   Clear
11:53 PM 63.0 °F 57.9 °F 84% 30.02 in 8.0 mi South 4.6 mph - N/A   Clear